Time,TemperatureF,DewpointF,PressureIn,WindDirection,WindDirectionDegrees,WindSpeedMPH,WindSpeedGustMPH,Humidity,HourlyPrecipIn,Conditions,Clouds,dailyrainin,SoftwareType,DateUTC
2013-03-17 06:54:00,1.6,-4.8,30.32,NE,45,0.0,0.0,74,0.00,,,0.00,Weather View 32 v70,2013-03-17 14:54:00,
2013-03-17 06:59:00,1.6,-4.8,30.32,NE,45,0.0,0.0,74,0.00,,,0.00,Weather View 32 v70,2013-03-17 14:59:00,
2013-03-17 07:04:00,1.6,-4.8,30.31,NE,45,0.0,0.0,74,0.00,,,0.00,Weather View 32 v70,2013-03-17 15:04:00,
2013-03-17 07:09:00,1.0,-5.3,30.31,NE,45,0.0,0.0,74,0.00,,,0.00,Weather View 32 v70,2013-03-17 15:09:00,
2013-03-17 07:14:00,1.0,-5.0,30.31,NE,45,0.0,0.0,75,0.00,,,0.00,Weather View 32 v70,2013-03-17 15:14:00,
2013-03-17 07:19:00,0.9,-5.2,30.31,NE,45,0.0,0.0,75,0.00,,,0.00,Weather View 32 v70,2013-03-17 15:19:00,
2013-03-17 07:24:00,1.0,-4.7,30.31,NE,45,1.0,0.0,76,0.00,,,0.00,Weather View 32 v70,2013-03-17 15:24:00,
2013-03-17 07:29:00,1.0,-4.5,30.31,NE,45,1.0,1.0,77,0.00,,,0.00,Weather View 32 v70,2013-03-17 15:29:00,
2013-03-17 07:34:00,1.0,-4.5,30.31,NE,45,1.0,1.0,77,0.00,,,0.00,Weather View 32 v70,2013-03-17 15:34:00,
2013-03-17 07:39:00,1.0,-4.5,30.31,NE,45,1.0,1.0,77,0.00,,,0.00,Weather View 32 v70,2013-03-17 15:39:00,
2013-03-17 07:44:00,0.9,-4.4,30.32,NE,45,1.0,1.0,78,0.00,,,0.00,Weather View 32 v70,2013-03-17 15:44:00,
2013-03-17 07:49:00,0.9,-4.6,30.32,NE,45,0.0,1.0,77,0.00,,,0.00,Weather View 32 v70,2013-03-17 15:49:00,
2013-03-17 07:54:00,0.9,-4.6,30.32,NE,45,0.0,1.0,77,0.00,,,0.00,Weather View 32 v70,2013-03-17 15:54:00,
2013-03-17 07:59:00,0.5,-5.3,30.32,NE,45,0.0,1.0,76,0.00,,,0.00,Weather View 32 v70,2013-03-17 15:59:00,
2013-03-17 08:04:00,0.5,-5.0,30.33,NE,45,0.0,1.0,77,0.00,,,0.00,Weather View 32 v70,2013-03-17 16:04:00,
2013-03-17 08:09:00,0.5,-5.0,30.33,NE,45,0.0,1.0,77,0.00,,,0.00,Weather View 32 v70,2013-03-17 16:09:00,
2013-03-17 08:14:00,0.3,-5.2,30.33,NE,45,0.0,1.0,77,0.00,,,0.00,Weather View 32 v70,2013-03-17 16:14:00,
2013-03-17 08:19:00,0.5,-5.0,30.33,NE,45,0.0,1.0,77,0.00,,,0.00,Weather View 32 v70,2013-03-17 16:19:00,
2013-03-17 08:24:00,0.1,-5.3,30.34,NE,45,0.0,1.0,77,0.00,,,0.00,Weather View 32 v70,2013-03-17 16:24:00,
2013-03-17 08:29:00,0.1,-5.3,30.34,NE,45,0.0,1.0,77,0.00,,,0.00,Weather View 32 v70,2013-03-17 16:29:00,
2013-03-17 08:34:00,0.1,-5.3,30.34,NE,45,0.0,1.0,77,0.00,,,0.00,Weather View 32 v70,2013-03-17 16:34:00,
2013-03-17 08:39:00,0.1,-5.6,30.34,NE,45,0.0,1.0,76,0.00,,,0.00,Weather View 32 v70,2013-03-17 16:39:00,
2013-03-17 08:44:00,0.1,-5.3,30.36,NE,45,0.0,1.0,77,0.00,,,0.00,Weather View 32 v70,2013-03-17 16:44:00,
2013-03-17 08:49:00,0.1,-5.3,30.36,NE,45,0.0,0.0,77,0.00,,,0.00,Weather View 32 v70,2013-03-17 16:49:00,
2013-03-17 08:54:00,0.3,-5.2,30.36,NE,45,0.0,0.0,77,0.00,,,0.00,Weather View 32 v70,2013-03-17 16:54:00,
2013-03-17 08:59:00,0.1,-5.3,30.36,NE,45,0.0,0.0,77,0.00,,,0.00,Weather View 32 v70,2013-03-17 16:59:00,
2013-03-17 09:04:00,0.5,-5.0,30.37,NE,45,0.0,0.0,77,0.00,,,0.00,Weather View 32 v70,2013-03-17 17:04:00,
2013-03-17 09:09:00,0.9,-4.6,30.37,NE,45,0.0,0.0,77,0.00,,,0.00,Weather View 32 v70,2013-03-17 17:09:00,
2013-03-17 09:14:00,1.2,-4.3,30.37,NE,45,0.0,0.0,77,0.00,,,0.00,Weather View 32 v70,2013-03-17 17:14:00,
2013-03-17 09:19:00,1.2,-4.3,30.37,NE,45,0.0,0.0,77,0.00,,,0.00,Weather View 32 v70,2013-03-17 17:19:00,
2013-03-17 09:24:00,1.9,-3.3,30.36,NE,45,0.0,0.0,78,0.00,,,0.00,Weather View 32 v70,2013-03-17 17:24:00,
2013-03-17 09:29:00,2.3,-3.0,30.36,NE,45,0.0,0.0,78,0.00,,,0.00,Weather View 32 v70,2013-03-17 17:29:00,
2013-03-17 09:34:00,2.8,-2.2,30.36,NE,45,0.0,0.0,79,0.00,,,0.00,Weather View 32 v70,2013-03-17 17:34:00,
2013-03-17 09:39:00,3.7,-1.3,30.36,NE,45,0.0,0.0,79,0.00,,,0.00,Weather View 32 v70,2013-03-17 17:39:00,
2013-03-17 09:44:00,3.9,-1.1,30.36,NE,45,0.0,0.0,79,0.00,,,0.00,Weather View 32 v70,2013-03-17 17:44:00,
2013-03-17 09:49:00,4.3,-0.8,30.36,NE,45,0.0,0.0,79,0.00,,,0.00,Weather View 32 v70,2013-03-17 17:49:00,
2013-03-17 09:54:00,5.5,0.4,30.36,NE,45,0.0,0.0,79,0.00,,,0.00,Weather View 32 v70,2013-03-17 17:54:00,
2013-03-17 09:59:00,8.1,2.9,30.36,NE,45,1.0,1.0,79,0.00,,,0.00,Weather View 32 v70,2013-03-17 17:59:00,
2013-03-17 10:04:00,10.2,4.5,30.36,NE,45,1.0,1.0,77,0.00,,,0.00,Weather View 32 v70,2013-03-17 18:04:00,
2013-03-17 10:09:00,14.7,7.9,30.36,NE,45,2.0,2.0,74,0.00,,,0.00,Weather View 32 v70,2013-03-17 18:09:00,
2013-03-17 10:14:00,11.8,4.3,30.36,NE,45,1.0,2.0,71,0.00,,,0.00,Weather View 32 v70,2013-03-17 18:14:00,
2013-03-17 10:19:00,10.9,3.7,30.36,NE,45,1.0,2.0,72,0.00,,,0.00,Weather View 32 v70,2013-03-17 18:19:00,
2013-03-17 10:24:00,10.9,3.7,30.34,NE,45,1.0,2.0,72,0.00,,,0.00,Weather View 32 v70,2013-03-17 18:24:00,
2013-03-17 10:29:00,11.1,3.9,30.34,NE,45,1.0,2.0,72,0.00,,,0.00,Weather View 32 v70,2013-03-17 18:29:00,
2013-03-17 10:34:00,11.7,4.4,30.34,NE,45,2.0,2.0,72,0.00,,,0.00,Weather View 32 v70,2013-03-17 18:34:00,
2013-03-17 10:39:00,12.4,5.1,30.34,SSE,158,2.0,2.0,72,0.00,,,0.00,Weather View 32 v70,2013-03-17 18:39:00,
2013-03-17 10:44:00,13.3,5.6,30.35,SSE,158,2.0,2.0,71,0.00,,,0.00,Weather View 32 v70,2013-03-17 18:44:00,
2013-03-17 10:49:00,15.6,7.6,30.35,SSE,158,2.0,2.0,70,0.00,,,0.00,Weather View 32 v70,2013-03-17 18:49:00,
2013-03-17 10:54:00,16.0,7.3,30.35,SSE,158,1.0,2.0,68,0.00,,,0.00,Weather View 32 v70,2013-03-17 18:54:00,
2013-03-17 10:59:00,15.6,6.6,30.35,SSE,158,1.0,2.0,67,0.00,,,0.00,Weather View 32 v70,2013-03-17 18:59:00,
2013-03-17 11:04:00,16.9,7.8,30.35,SSE,158,1.0,2.0,67,0.00,,,0.00,Weather View 32 v70,2013-03-17 19:04:00,
2013-03-17 11:09:00,19.9,9.7,30.35,SSE,158,1.0,2.0,64,0.00,,,0.00,Weather View 32 v70,2013-03-17 19:09:00,
2013-03-17 11:14:00,20.3,9.7,30.35,SSE,158,1.0,2.0,63,0.00,,,0.00,Weather View 32 v70,2013-03-17 19:14:00,
2013-03-17 11:19:00,26.1,14.4,30.35,SSE,158,1.0,2.0,61,0.00,,,0.00,Weather View 32 v70,2013-03-17 19:19:00,
2013-03-17 11:24:00,30.6,16.7,30.33,SSE,158,0.0,2.0,56,0.00,,,0.00,Weather View 32 v70,2013-03-17 19:24:00,
2013-03-17 11:29:00,30.4,14.8,30.33,SSE,158,0.0,2.0,52,0.00,,,0.00,Weather View 32 v70,2013-03-17 19:29:00,
2013-03-17 11:35:00,33.6,15.0,30.33,SSE,158,0.0,2.0,46,0.00,,,0.00,Weather View 32 v70,2013-03-17 19:35:00,
2013-03-17 11:40:00,33.6,14.0,30.33,SSE,158,0.0,2.0,44,0.00,,,0.00,Weather View 32 v70,2013-03-17 19:40:00,
2013-03-17 11:45:00,30.7,11.9,30.33,SSE,158,0.0,2.0,45,0.00,,,0.00,Weather View 32 v70,2013-03-17 19:45:00,
2013-03-17 11:50:00,34.9,14.6,30.33,SSE,158,0.0,2.0,43,0.00,,,0.00,Weather View 32 v70,2013-03-17 19:50:00,
2013-03-17 11:55:00,33.1,12.5,30.33,SSE,158,0.0,1.0,42,0.00,,,0.00,Weather View 32 v70,2013-03-17 19:55:00,
2013-03-17 12:00:00,31.8,11.9,30.33,SSE,158,0.0,1.0,43,0.00,,,0.00,Weather View 32 v70,2013-03-17 20:00:00,
2013-03-17 12:05:00,34.2,14.0,30.31,SSE,158,0.0,1.0,43,0.00,,,0.00,Weather View 32 v70,2013-03-17 20:05:00,
2013-03-17 12:10:00,34.2,14.0,30.31,SSE,158,0.0,1.0,43,0.00,,,0.00,Weather View 32 v70,2013-03-17 20:10:00,
2013-03-17 12:15:00,34.3,13.1,30.31,SSE,158,1.0,1.0,41,0.00,,,0.00,Weather View 32 v70,2013-03-17 20:15:00,
2013-03-17 12:20:00,34.9,11.8,30.31,SSE,158,1.0,1.0,38,0.00,,,0.00,Weather View 32 v70,2013-03-17 20:20:00,
2013-03-17 12:25:00,35.8,13.8,30.32,SSE,158,1.0,1.0,40,0.00,,,0.00,Weather View 32 v70,2013-03-17 20:25:00,
2013-03-17 12:30:00,36.3,12.5,30.32,SSE,158,1.0,1.0,37,0.00,,,0.00,Weather View 32 v70,2013-03-17 20:30:00,
2013-03-17 12:35:00,39.6,13.5,30.32,SSE,158,1.0,1.0,34,0.00,,,0.00,Weather View 32 v70,2013-03-17 20:35:00,
2013-03-17 12:40:00,40.1,12.6,30.32,SSE,158,1.0,1.0,32,0.00,,,0.00,Weather View 32 v70,2013-03-17 20:40:00,
2013-03-17 12:45:00,42.3,13.0,30.32,SSE,158,1.0,1.0,30,0.00,,,0.00,Weather View 32 v70,2013-03-17 20:45:00,
2013-03-17 12:50:00,46.9,12.9,30.32,SSE,158,1.0,1.0,25,0.00,,,0.00,Weather View 32 v70,2013-03-17 20:50:00,
2013-03-17 12:55:00,48.4,11.2,30.32,SSE,158,1.0,1.0,22,0.00,,,0.00,Weather View 32 v70,2013-03-17 20:55:00,
2013-03-17 13:00:00,52.0,14.2,30.32,SSE,158,1.0,1.0,22,0.00,,,0.00,Weather View 32 v70,2013-03-17 21:00:00,
2013-03-17 13:05:00,54.0,15.9,30.32,SSE,158,1.0,1.0,22,0.00,,,0.00,Weather View 32 v70,2013-03-17 21:05:00,
2013-03-17 13:10:00,56.5,13.4,30.32,SSE,158,1.0,1.0,18,0.00,,,0.00,Weather View 32 v70,2013-03-17 21:10:00,
2013-03-17 13:15:00,57.7,13.1,30.32,SSE,158,1.0,1.0,17,0.00,,,0.00,Weather View 32 v70,2013-03-17 21:15:00,
2013-03-17 13:20:00,59.2,14.3,30.32,SSE,158,1.0,1.0,17,0.00,,,0.00,Weather View 32 v70,2013-03-17 21:20:00,
2013-03-17 13:25:00,59.0,12.8,30.33,SSE,158,1.0,1.0,16,0.00,,,0.00,Weather View 32 v70,2013-03-17 21:25:00,
2013-03-17 13:30:00,59.4,14.5,30.33,SSE,158,1.0,1.0,17,0.00,,,0.00,Weather View 32 v70,2013-03-17 21:30:00,
2013-03-17 13:35:00,59.2,12.9,30.33,SSE,158,2.0,2.0,16,0.00,,,0.00,Weather View 32 v70,2013-03-17 21:35:00,
2013-03-17 13:40:00,60.6,14.1,30.33,SSE,158,2.0,2.0,16,0.00,,,0.00,Weather View 32 v70,2013-03-17 21:40:00,
2013-03-17 13:45:00,61.5,14.8,30.33,SSE,158,1.0,2.0,16,0.00,,,0.00,Weather View 32 v70,2013-03-17 21:45:00,
2013-03-17 13:50:00,61.5,13.3,30.33,SSE,158,1.0,2.0,15,0.00,,,0.00,Weather View 32 v70,2013-03-17 21:50:00,
2013-03-17 13:55:00,61.0,9.7,30.33,SSE,158,1.0,2.0,13,0.00,,,0.00,Weather View 32 v70,2013-03-17 21:55:00,
2013-03-17 14:00:00,62.8,9.3,30.33,SSE,158,1.0,2.0,12,0.00,,,0.00,Weather View 32 v70,2013-03-17 22:00:00,
2013-03-17 14:05:00,59.2,4.6,30.33,SSE,158,1.0,2.0,11,0.00,,,0.00,Weather View 32 v70,2013-03-17 22:05:00,
2013-03-17 14:10:00,58.5,7.7,30.33,SSE,158,2.0,2.0,13,0.00,,,0.00,Weather View 32 v70,2013-03-17 22:10:00,
2013-03-17 14:15:00,59.5,10.2,30.33,SSE,158,1.0,2.0,14,0.00,,,0.00,Weather View 32 v70,2013-03-17 22:15:00,
2013-03-17 14:20:00,61.0,11.4,30.33,SSE,158,1.0,2.0,14,0.00,,,0.00,Weather View 32 v70,2013-03-17 22:20:00,
2013-03-17 14:25:00,61.3,10.0,30.33,SSE,158,1.0,2.0,13,0.00,,,0.00,Weather View 32 v70,2013-03-17 22:25:00,
2013-03-17 14:30:00,60.1,10.6,30.33,SSE,158,1.0,2.0,14,0.00,,,0.00,Weather View 32 v70,2013-03-17 22:30:00,
2013-03-17 14:35:00,57.2,8.3,30.33,SSE,158,1.0,2.0,14,0.00,,,0.00,Weather View 32 v70,2013-03-17 22:35:00,
2013-03-17 14:40:00,59.5,8.6,30.33,SSE,158,1.0,2.0,13,0.00,,,0.00,Weather View 32 v70,2013-03-17 22:40:00,
2013-03-17 14:45:00,59.9,8.8,30.33,SSE,158,1.0,2.0,13,0.00,,,0.00,Weather View 32 v70,2013-03-17 22:45:00,
2013-03-17 14:50:00,57.9,7.3,30.33,NNE,22,2.0,2.0,13,0.00,,,0.00,Weather View 32 v70,2013-03-17 22:50:00,
2013-03-17 14:55:00,57.0,6.6,30.33,NNE,22,2.0,2.0,13,0.00,,,0.00,Weather View 32 v70,2013-03-17 22:55:00,
2013-03-17 15:00:00,50.2,5.6,30.33,NNE,22,2.0,3.0,16,0.00,,,0.00,Weather View 32 v70,2013-03-17 23:00:00,
2013-03-17 15:05:00,46.2,7.3,30.32,NNE,22,2.0,3.0,20,0.00,,,0.00,Weather View 32 v70,2013-03-17 23:05:00,
2013-03-17 15:10:00,43.3,7.0,30.32,NNE,22,2.0,3.0,22,0.00,,,0.00,Weather View 32 v70,2013-03-17 23:10:00,
2013-03-17 15:15:00,41.7,5.6,30.32,NNE,22,2.0,3.0,22,0.00,,,0.00,Weather View 32 v70,2013-03-17 23:15:00,
2013-03-17 15:20:00,40.1,5.2,30.32,NNE,22,1.0,3.0,23,0.00,,,0.00,Weather View 32 v70,2013-03-17 23:20:00,
2013-03-17 15:25:00,39.2,6.3,30.31,North,0,1.0,3.0,25,0.00,,,0.00,Weather View 32 v70,2013-03-17 23:25:00,
2013-03-17 15:30:00,38.3,6.4,30.31,NE,45,3.0,3.0,26,0.00,,,0.00,Weather View 32 v70,2013-03-17 23:30:00,
2013-03-17 15:35:00,37.2,6.3,30.31,NE,45,2.0,3.0,27,0.00,,,0.00,Weather View 32 v70,2013-03-17 23:35:00,
2013-03-17 15:40:00,36.9,6.8,30.31,NNE,22,3.0,3.0,28,0.00,,,0.00,Weather View 32 v70,2013-03-17 23:40:00,
2013-03-17 15:45:00,36.3,7.1,30.31,NE,45,4.0,4.0,29,0.00,,,0.00,Weather View 32 v70,2013-03-17 23:45:00,
2013-03-17 15:50:00,36.1,7.7,30.31,NNE,22,3.0,4.0,30,0.00,,,0.00,Weather View 32 v70,2013-03-17 23:50:00,
2013-03-17 15:55:00,35.6,7.2,30.31,NNE,22,3.0,4.0,30,0.00,,,0.00,Weather View 32 v70,2013-03-17 23:55:00,
2013-03-17 16:00:00,35.4,7.0,30.31,NE,45,3.0,4.0,30,0.00,,,0.00,Weather View 32 v70,2013-03-18 00:00:00,
2013-03-17 16:05:00,35.4,7.8,30.32,NE,45,3.0,4.0,31,0.00,,,0.00,Weather View 32 v70,2013-03-18 00:05:00,
2013-03-17 16:10:00,34.9,7.3,30.32,NE,45,3.0,4.0,31,0.00,,,0.00,Weather View 32 v70,2013-03-18 00:10:00,
2013-03-17 16:15:00,34.7,7.1,30.32,NE,45,3.0,4.0,31,0.00,,,0.00,Weather View 32 v70,2013-03-18 00:15:00,
2013-03-17 16:20:00,34.3,7.5,30.32,NE,45,3.0,4.0,32,0.00,,,0.00,Weather View 32 v70,2013-03-18 00:20:00,
2013-03-17 16:25:00,34.2,8.0,30.31,NE,45,3.0,4.0,33,0.00,,,0.00,Weather View 32 v70,2013-03-18 00:25:00,
2013-03-17 16:30:00,34.3,8.2,30.31,NE,45,4.0,4.0,33,0.00,,,0.00,Weather View 32 v70,2013-03-18 00:30:00,
2013-03-17 16:35:00,34.2,8.0,30.31,NE,45,4.0,4.0,33,0.00,,,0.00,Weather View 32 v70,2013-03-18 00:35:00,
2013-03-17 16:40:00,34.0,7.9,30.31,NE,45,4.0,4.0,33,0.00,,,0.00,Weather View 32 v70,2013-03-18 00:40:00,
2013-03-17 16:45:00,34.0,7.9,30.31,NE,45,4.0,4.0,33,0.00,,,0.00,Weather View 32 v70,2013-03-18 00:45:00,
2013-03-17 16:50:00,34.0,7.9,30.31,NE,45,4.0,4.0,33,0.00,,,0.00,Weather View 32 v70,2013-03-18 00:50:00,
2013-03-17 16:55:00,34.0,7.9,30.31,NE,45,3.0,4.0,33,0.00,,,0.00,Weather View 32 v70,2013-03-18 00:55:00,
2013-03-17 17:00:00,33.8,7.7,30.31,NNE,22,3.0,4.0,33,0.00,,,0.00,Weather View 32 v70,2013-03-18 01:00:00,
2013-03-17 17:05:00,34.0,8.5,30.31,NE,45,3.0,4.0,34,0.00,,,0.00,Weather View 32 v70,2013-03-18 01:05:00,
2013-03-17 17:10:00,33.6,7.6,30.31,NE,45,3.0,4.0,33,0.00,,,0.00,Weather View 32 v70,2013-03-18 01:10:00,
2013-03-17 17:15:00,33.6,8.2,30.31,NE,45,2.0,4.0,34,0.00,,,0.00,Weather View 32 v70,2013-03-18 01:15:00,
2013-03-17 17:20:00,33.6,8.2,30.31,NE,45,3.0,4.0,34,0.00,,,0.00,Weather View 32 v70,2013-03-18 01:20:00,
2013-03-17 17:25:00,33.6,8.2,30.30,NE,45,4.0,4.0,34,0.00,,,0.00,Weather View 32 v70,2013-03-18 01:25:00,
2013-03-17 17:30:00,33.1,7.7,30.30,NE,45,3.0,4.0,34,0.00,,,0.00,Weather View 32 v70,2013-03-18 01:30:00,
2013-03-17 17:35:00,33.3,8.5,30.30,NE,45,3.0,4.0,35,0.00,,,0.00,Weather View 32 v70,2013-03-18 01:35:00,
2013-03-17 17:40:00,32.9,8.2,30.30,East,90,4.0,4.0,35,0.00,,,0.00,Weather View 32 v70,2013-03-18 01:40:00,
2013-03-17 17:45:00,32.7,8.1,30.30,ENE,68,3.0,4.0,35,0.00,,,0.00,Weather View 32 v70,2013-03-18 01:45:00,
2013-03-17 17:50:00,32.7,8.1,30.30,ENE,68,3.0,4.0,35,0.00,,,0.00,Weather View 32 v70,2013-03-18 01:50:00,
2013-03-17 17:55:00,32.5,8.5,30.30,ENE,68,3.0,4.0,36,0.00,,,0.00,Weather View 32 v70,2013-03-18 01:55:00,
2013-03-17 18:00:00,32.5,8.5,30.30,ENE,68,3.0,4.0,36,0.00,,,0.00,Weather View 32 v70,2013-03-18 02:00:00,
2013-03-17 18:05:00,32.2,7.6,30.30,ENE,68,2.0,4.0,35,0.00,,,0.00,Weather View 32 v70,2013-03-18 02:05:00,
2013-03-17 18:11:00,32.2,8.2,30.30,ENE,68,3.0,4.0,36,0.00,,,0.00,Weather View 32 v70,2013-03-18 02:11:00,
2013-03-17 18:16:00,31.8,7.9,30.30,ENE,68,2.0,4.0,36,0.00,,,0.00,Weather View 32 v70,2013-03-18 02:16:00,
2013-03-17 18:21:00,32.2,8.8,30.30,NNE,22,2.0,4.0,37,0.00,,,0.00,Weather View 32 v70,2013-03-18 02:21:00,
2013-03-17 18:26:00,32.2,9.4,30.31,NE,45,2.0,4.0,38,0.00,,,0.00,Weather View 32 v70,2013-03-18 02:26:00,
2013-03-17 18:31:00,31.8,9.1,30.31,NE,45,2.0,4.0,38,0.00,,,0.00,Weather View 32 v70,2013-03-18 02:31:00,
2013-03-17 18:36:00,31.8,9.7,30.31,NE,45,3.0,4.0,39,0.00,,,0.00,Weather View 32 v70,2013-03-18 02:36:00,
2013-03-17 18:41:00,31.8,9.7,30.31,NE,45,4.0,4.0,39,0.00,,,0.00,Weather View 32 v70,2013-03-18 02:41:00,
2013-03-17 18:46:00,31.8,10.2,30.30,NE,45,4.0,4.0,40,0.00,,,0.00,Weather View 32 v70,2013-03-18 02:46:00,
2013-03-17 18:51:00,31.5,9.9,30.30,NE,45,4.0,4.0,40,0.00,,,0.00,Weather View 32 v70,2013-03-18 02:51:00,
2013-03-17 18:56:00,31.3,9.7,30.30,ENE,68,3.0,4.0,40,0.00,,,0.00,Weather View 32 v70,2013-03-18 02:56:00,
2013-03-17 19:01:00,31.1,9.6,30.30,ENE,68,3.0,4.0,40,0.00,,,0.00,Weather View 32 v70,2013-03-18 03:01:00,
2013-03-17 19:06:00,30.6,9.6,30.31,NE,45,3.0,4.0,41,0.00,,,0.00,Weather View 32 v70,2013-03-18 03:06:00,
2013-03-17 19:12:00,30.4,10.0,30.31,NE,45,2.0,4.0,42,0.00,,,0.00,Weather View 32 v70,2013-03-18 03:12:00,
2013-03-17 19:17:00,30.4,10.0,30.31,NE,45,2.0,4.0,42,0.00,,,0.00,Weather View 32 v70,2013-03-18 03:17:00,
2013-03-17 19:22:00,29.7,9.4,30.31,NE,45,1.0,4.0,42,0.00,,,0.00,Weather View 32 v70,2013-03-18 03:22:00,
2013-03-17 19:27:00,29.7,9.9,30.31,NE,45,2.0,4.0,43,0.00,,,0.00,Weather View 32 v70,2013-03-18 03:27:00,
2013-03-17 19:32:00,29.1,10.4,30.31,NE,45,2.0,4.0,45,0.00,,,0.00,Weather View 32 v70,2013-03-18 03:32:00,
2013-03-17 19:37:00,28.9,10.7,30.31,NE,45,1.0,4.0,46,0.00,,,0.00,Weather View 32 v70,2013-03-18 03:37:00,
2013-03-17 19:42:00,28.2,11.0,30.31,NE,45,1.0,4.0,48,0.00,,,0.00,Weather View 32 v70,2013-03-18 03:42:00,
2013-03-17 19:47:00,27.9,10.7,30.30,NE,45,1.0,4.0,48,0.00,,,0.00,Weather View 32 v70,2013-03-18 03:47:00,
2013-03-17 19:52:00,27.1,10.5,30.30,NE,45,0.0,4.0,49,0.00,,,0.00,Weather View 32 v70,2013-03-18 03:52:00,
2013-03-17 19:57:00,26.8,10.6,30.30,NE,45,0.0,3.0,50,0.00,,,0.00,Weather View 32 v70,2013-03-18 03:57:00,
2013-03-17 20:00:00,26.2,10.1,30.30,NE,45,0.0,3.0,50,0.00,,,0.00,Weather View 32 v70,2013-03-18 04:00:00,
2013-03-17 20:05:00,25.9,10.2,30.30,NE,45,0.0,3.0,51,0.00,,,0.00,Weather View 32 v70,2013-03-18 04:05:00,
2013-03-17 20:10:00,25.3,10.2,30.30,NE,45,0.0,2.0,52,0.00,,,0.00,Weather View 32 v70,2013-03-18 04:10:00,
2013-03-17 20:15:00,25.3,10.2,30.30,NE,45,0.0,2.0,52,0.00,,,0.00,Weather View 32 v70,2013-03-18 04:15:00,
2013-03-17 20:20:00,24.8,10.1,30.30,NE,45,0.0,2.0,53,0.00,,,0.00,Weather View 32 v70,2013-03-18 04:20:00,
2013-03-17 20:25:00,24.6,9.9,30.28,NE,45,0.0,2.0,53,0.00,,,0.00,Weather View 32 v70,2013-03-18 04:25:00,
2013-03-17 20:30:00,24.6,10.7,30.28,NE,45,0.0,2.0,55,0.00,,,0.00,Weather View 32 v70,2013-03-18 04:30:00,
2013-03-17 20:35:00,24.6,10.7,30.28,NE,45,0.0,1.0,55,0.00,,,0.00,Weather View 32 v70,2013-03-18 04:35:00,
2013-03-17 20:40:00,24.3,10.4,30.28,NE,45,1.0,1.0,55,0.00,,,0.00,Weather View 32 v70,2013-03-18 04:40:00,
2013-03-17 20:45:00,23.9,10.5,30.27,NE,45,1.0,1.0,56,0.00,,,0.00,Weather View 32 v70,2013-03-18 04:45:00,
2013-03-17 20:50:00,23.9,10.5,30.27,NE,45,1.0,1.0,56,0.00,,,0.00,Weather View 32 v70,2013-03-18 04:50:00,
2013-03-17 20:55:00,23.4,10.4,30.27,NE,45,1.0,1.0,57,0.00,,,0.00,Weather View 32 v70,2013-03-18 04:55:00,
2013-03-17 21:00:00,23.2,10.2,30.27,NE,45,0.0,1.0,57,0.00,,,0.00,Weather View 32 v70,2013-03-18 05:00:00,
2013-03-17 21:05:00,22.5,9.9,30.26,NE,45,0.0,1.0,58,0.00,,,0.00,Weather View 32 v70,2013-03-18 05:05:00,
2013-03-17 21:10:00,22.1,9.6,30.26,NE,45,0.0,1.0,58,0.00,,,0.00,Weather View 32 v70,2013-03-18 05:10:00,
2013-03-17 21:15:00,21.7,9.6,30.26,NE,45,0.0,1.0,59,0.00,,,0.00,Weather View 32 v70,2013-03-18 05:15:00,
2013-03-17 21:20:00,21.2,9.1,30.26,NE,45,0.0,1.0,59,0.00,,,0.00,Weather View 32 v70,2013-03-18 05:20:00,